Find Starlink 11127

NORAD ID: 60119 Int'l Des: 2024-118 Owner: SPXS Country: US Constellation: starlink operational
LEOCIRCULAR

实时位置

正在加载3D地球...

关于 Starlink 11127

正在加载描述...

即将过境

Passes for default location (London). Set your location on the main map for personalized predictions.

高度历史

Loading altitude history...

两行轨道根数

1 60119U 24118G 26104.53547088 .00013545 00000-0 11645-3 0 9994
2 60119 53.1573 44.5263 0002690 83.2097 276.9227 15.69716046103625
Epoch: Apr 14, 2026 • Age: 19 hours

当前状态

高度 372.6 km
速度 7.68 km/s
星下点 -36.05°S, 72.36°W
发射日期 Jun 24, 2024
运行时间 1.8 years
类型 internet

技术详情

分类 Payload
质量 960.00 kg
干质量 910.00 kg
总质量 960.00 kg
长度 0.30 m
直径 4.10 m
跨度 29.00 m
形状 Box + pan
制造商 SPXS
平台类型 Starlink V2MD
阶段状态 In Orbit
所有者/国家 SPXS/US

Most Searched